This demonstration page uses our WeatherBlox Daily Observations layout. Learn more.

Left ArrowRight Arrow

44.8408, -93.29828

Hourly Observations for May 17, 2021

Temp ( °F °C ) Dew Point ( °F °C ) Humidity (%) Winds ( mph kmh ) Pressure ( in mb ) Visibility ( mi km ) Precip ( " mm )
12:53 am 00:53 Clear 60 15.6 51 10.6 72 72 SSE 5 7 30.09 1019 10 16 0.00 0.00
1:53 am 01:53 Clear 59 15 50 10 72 72 S 3 6 30.10 1019 10 16 0.00 0.00
2:53 am 02:53 Clear 57 13.9 50 10 78 78 Calm 30.10 1019 10 16 0.00 0.00
3:53 am 03:53 Clear 54 12.2 49 9.4 83 83 Calm 30.10 1019 10 16 0.00 0.00
4:53 am 04:53 Clear 53 11.7 49 9.4 86 86 Calm 30.11 1020 8 13 0.00 0.00
5:53 am 05:53 Partly Cloudy with Mist and Fog 53 11.7 50 10 89 89 Calm 30.11 1020 4 6 0.00 0.00
6:53 am 06:53 Mostly Sunny 55 12.8 52 11.1 90 90 SE 3 6 30.14 1021 9 14 0.00 0.00
7:53 am 07:53 Sunny 59 15 53 11.7 81 81 Calm 30.15 1021 9 14 0.00 0.00
8:53 am 08:53 Sunny 63 17.2 54 12.2 73 73 Calm 30.15 1021 9 14 0.00 0.00
9:53 am 09:53 Sunny 66 18.9 55 12.8 68 68 ESE 3 6 30.15 1021 10 16 0.00 0.00
10:53 am 10:53 Sunny 70 21.1 52 11.1 53 53 ESE 12 19 30.15 1021 10 16 0.00 0.00
11:53 am 11:53 Mostly Sunny 71 21.7 51 10.6 49 49 SSE 5 7 30.14 1021 10 16 0.00 0.00
12:53 pm 12:53 Mostly Sunny 75 23.9 48 8.9 39 39 VRB 3 6 30.12 1020 10 16 0.00 0.00
1:53 pm 13:53 Mostly Sunny 77 25 47 8.3 35 35 SSE 12 19 30.11 1020 10 16 0.00 0.00
2:53 pm 14:53 Mostly Sunny 78 25.6 45 7.2 31 31 E 9 15 30.10 1019 10 16 0.00 0.00
3:53 pm 15:53 Mostly Sunny 78 25.6 46 7.8 32 32 SE 12 19 30.09 1019 10 16 0.00 0.00
4:53 pm 16:53 Mostly Sunny 79 26.1 46 7.8 31 31 SE 16 26 30.08 1019 10 16 0.00 0.00
5:53 pm 17:53 Mostly Sunny 78 25.6 45 7.2 31 31 ESE 16 26 30.07 1018 10 16 0.00 0.00
6:53 pm 18:53 Mostly Sunny 77 25 45 7.2 32 32 E 15 24 30.07 1018 10 16 0.00 0.00
7:53 pm 19:53 Mostly Sunny 75 23.9 45 7.2 34 34 ESE 14 22 30.07 1018 10 16 0.00 0.00
8:53 pm 20:53 Mostly Clear 73 22.8 45 7.2 37 37 ESE 10 17 30.09 1019 10 16 0.00 0.00
9:53 pm 21:53 Mostly Clear 70 21.1 46 7.8 42 42 SE 9 15 30.10 1019 10 16 0.00 0.00
10:53 pm 22:53 Clear 67 19.4 47 8.3 49 49 SE 7 11 30.11 1020 10 16 0.00 0.00
11:53 pm 23:53 Clear 64 17.8 47 8.3 54 54 SSE 7 11 30.11 1020 10 16 0.00 0.00

Powered by AerisWeather